Weather History for MNMG - April, 2014

Change the Weather History Date:

Monday, April 21, 2014

  Actual Average Record
Temperature  
Mean Temperature 88 °F -  
Max Temperature 98 °F 92 °F 98 °F (2005)
Min Temperature 77 °F 73 °F 73 °F (1997)
Cooling Degree Days 22    
Growing Degree Days 38 (Base 50)    
Moisture  
Dew Point 68 °F    
Average Humidity 56    
Maximum Humidity 78    
Minimum Humidity 32    
Precipitation  
Precipitation 0.00 in - - ()
Sea Level Pressure  
Sea Level Pressure 29.84 in    
Wind  
Wind Speed 9 mph ()    
Max Wind Speed 18 mph    
Max Gust Speed -    
Visibility 6.1 miles    
Events      
Averages and records for this station are not official NWS values.
T = Trace of Precipitation, MM = Missing Value Source: Averaged Metar Reports

Daily Weather History Graph

Daily Weather History Graph

Search for Another Location

Airport or City:

Trip Planner

Search our weather history database for the weather conditions in past years. The results will help you decide how hot, cold, wet, or windy it might be!

Date:

Astronomy

Apr. 21, 2014 Rise Set
Actual Time 5:29 AM CST 5:57 PM CST
Civil Twilight 5:07 AM CST 6:19 PM CST
Nautical Twilight 4:42 AM CST 6:44 PM CST
Astronomical Twilight 4:16 AM CST 7:10 PM CST
Moon No Moon Rise 11:08 AM CST (4/21)
Length of Visible Light 13h 11m
Length of Day
12h 27m
Waning Gibbous, 57% of the Moon is Illuminated
Apr 21
Waning Gibbous
Apr 22
Last Quarter
Apr 29
New
May 6
First Quarter
May 14
Full

Hourly Weather History & Observations

Time (CST) Temp. Heat Index Dew Point Humidity Pressure Visibility Wind Dir Wind Speed Gust Speed Precip Events Conditions
12:00 AM 82.4 °F 86.3 °F 69.8 °F 66% 29.89 in 6.2 mi ESE 6.9 mph - N/A   Partly Cloudy
1:00 AM 80.6 °F 83.9 °F 69.8 °F 70% 29.89 in 6.2 mi East 11.5 mph - N/A   Partly Cloudy
3:00 AM 78.8 °F - 69.8 °F 74% 29.86 in 6.2 mi East 9.2 mph - N/A   Partly Cloudy
4:00 AM 77.0 °F - 69.8 °F 78% 29.86 in 6.2 mi East 9.2 mph - N/A   Partly Cloudy
5:00 AM 78.8 °F - 69.8 °F 74% 29.86 in 6.2 mi ENE 9.2 mph - N/A   Partly Cloudy
6:00 AM 78.8 °F - 68.0 °F 69% 29.89 in 6.2 mi ESE 9.2 mph - N/A   Partly Cloudy
7:00 AM 82.4 °F 86.3 °F 69.8 °F 66% 29.89 in 6.2 mi ESE 9.2 mph - N/A   Partly Cloudy
8:00 AM 84.2 °F 87.3 °F 68.0 °F 58% 29.89 in 6.2 mi ENE 9.2 mph - N/A   Partly Cloudy
9:00 AM 86.0 °F 88.2 °F 66.2 °F 51% 29.89 in 6.2 mi ENE 13.8 mph - N/A   Partly Cloudy
10:00 AM 89.6 °F 92.2 °F 66.2 °F 46% 29.89 in 6.2 mi ENE 11.5 mph - N/A   Partly Cloudy
11:00 AM 91.4 °F 94.0 °F 66.2 °F 43% 29.86 in 6.2 mi East 13.8 mph - N/A   Partly Cloudy
12:00 PM 93.2 °F 94.9 °F 64.4 °F 38% 29.83 in 6.2 mi ENE 9.2 mph - N/A   Partly Cloudy
1:00 PM 95.0 °F 97.0 °F 64.4 °F 36% 29.80 in 6.2 mi East 9.2 mph - N/A   Partly Cloudy
2:00 PM 96.8 °F 99.0 °F 64.4 °F 34% 29.77 in 6.2 mi East 13.8 mph - N/A   Partly Cloudy
3:00 PM 98.6 °F 101.0 °F 64.4 °F 32% 29.77 in 6.2 mi East 13.8 mph - N/A   Partly Cloudy
4:00 PM 95.0 °F 98.5 °F 66.2 °F 39% 29.74 in 6.2 mi NE 11.5 mph - N/A   Partly Cloudy
5:00 PM 93.2 °F 97.7 °F 68.0 °F 44% 29.74 in 6.2 mi ESE 18.4 mph - N/A   Partly Cloudy
6:00 PM 91.4 °F 95.4 °F 68.0 °F 46% 29.77 in 6.2 mi ESE 13.8 mph - N/A   Partly Cloudy
7:00 PM 87.8 °F 92.6 °F 69.8 °F 55% 29.80 in 6.2 mi ESE 13.8 mph - N/A   Partly Cloudy
8:00 PM 86.0 °F 91.8 °F 71.6 °F 62% 29.83 in 6.2 mi ESE 9.2 mph - N/A   Partly Cloudy
9:00 PM 86.0 °F 91.8 °F 71.6 °F 62% 29.83 in 6.2 mi ESE 13.8 mph - N/A   Partly Cloudy
10:00 PM 84.2 °F 89.6 °F 71.6 °F 66% 29.83 in 5.0 mi ESE 13.8 mph - N/A   Partly Cloudy
11:00 PM 82.4 °F 87.2 °F 71.6 °F 70% 29.83 in 4.3 mi ESE 13.8 mph - N/A   Partly Cloudy